Flag for U.S.A. Weather past 2 weeks in West Covina, California, U.S.A.

Now
63 °F

Clear.


Feels Like: 63 °F
Forecast: 54 / 83 °F
Wind: 3 mph from Southeast

Location: Fullerton Municipal Airport

Current Time: Mar 30, 2015 at 12:40:58 AM

Latest Report: Mar 29, 2015 at 11:53 PM


Visibility: 10 mi

Pressure: 30.02 "Hg

Humidity: 78%

Dew point: 56 °F

Location of West CovinaLocation

Historic Weather in West Covina — Graph

°F

West Covina temperature yesterday

Maximum temperature yesterday: 81 °F (at 2:53 PM)
Minimum temperature yesterday: 61 °F (at 2:53 AM)
Average temperature yesterday: 69 °F

Past Weeks' High & Low Weather Summary

 TemperatureHumidityPressure
High95 °F (Mar 26, 1:53 PM)90% (Mar 29, 4:53 AM)30.18 "Hg (Mar 29, 4:53 AM)
Low56 °F (Mar 24, 5:53 AM)7% (Mar 26, 1:53 PM)29.85 "Hg (Mar 16, 5:53 PM)
Average70 °F54%30.02 "Hg
* Reported Mar 14 10:53 PM — Mar 29 10:53 PM, West Covina, Weather by CustomWeather, © 2015

Note: Actual official high and low records may vary slightly from our data, if they occured in-between our weather recording intervals... More about our weather records

Advertising

West Covina weather history for previous 24 hours

 ConditionsComfort  
Time TempWeatherWind HumidityBarometerVisibility
10:53 PM
Sun, Mar 29
63 °FClear.3 mph78%30.02 "Hg10 mi
9:53 PM65 °FClear.5 mph73%30.01 "Hg10 mi
8:53 PM66 °FClear.3 mph68%30.00 "Hg10 mi
7:53 PM68 °FSunny.6 mph61%29.97 "Hg10 mi
6:53 PM70 °FSunny.6 mph57%29.96 "Hg10 mi
5:53 PM74 °FSunny.7 mph46%29.95 "Hg10 mi
4:53 PM77 °FSunny.7 mph39%29.95 "Hg10 mi
3:53 PM79 °FSunny.8 mph35%29.95 "Hg10 mi
2:53 PM81 °FSunny.9 mph29%29.97 "Hg10 mi
1:53 PM79 °FSunny.6 mph44%29.99 "Hg10 mi
12:53 PM79 °FSunny.7 mph45%30.01 "Hg10 mi
11:53 AM78 °FSunny.9 mph45%30.03 "Hg10 mi
10:53 AM76 °FSunny.5 mph40%30.03 "Hg10 mi
9:53 AM71 °FSunny.6 mph55%30.03 "Hg8 mi
8:53 AM65 °FSunny.No wind70%30.04 "Hg6 mi
7:53 AM62 °FSunny.No wind80%30.04 "Hg6 mi
6:53 AM62 °FOvercast.No wind80%30.04 "Hg8 mi
6:03 AM62 °FLow clouds.3 mph80%30.04 "Hg7 mi
4:53 AM61 °FFog.5 mph90%30.02 "Hg4 mi
3:53 AM62 °FFog.No wind86%30.01 "Hg5 mi
2:53 AM61 °FPassing clouds.No wind83%30.01 "Hg8 mi
1:53 AM63 °FClear.3 mph84%30.03 "Hg7 mi
12:53 AM63 °FClear.No wind81%30.03 "Hg8 mi
Weather by CustomWeather, © 2015

See weather overviewHow to use our weather pages